Find Starlink 31809

NORAD ID: 59743 Int'l Des: 2024-090 Owner: SPXS Country: US Constellation: starlink operational
LEOCIRCULAR

当前视图

正在加载3D地球...

关于 Starlink 31809

正在加载描述...

即将过境

Passes for default location (London). Set your location on the main map for personalized predictions.

高度历史

Loading altitude history...

两行轨道根数

1 59743U 24090P 26145.27444639 .00000345 00000-0 22082-4 0 9990
2 59743 43.0029 103.9894 0001166 275.3677 84.7042 15.27571732115230
Epoch: May 25, 2026 • Age: 14 hours

当前状态

高度 494.9 km
速度 7.62 km/s
星下点 -41.34°S, 158.16°W
发射日期 May 13, 2024
运行时间 2 years
类型 internet

技术详情

分类 Payload
质量 730.00 kg
干质量 700.00 kg
总质量 730.00 kg
长度 0.30 m
直径 4.10 m
跨度 29.00 m
形状 Box + pan
制造商 SPXS
平台类型 Starlink V2M
阶段状态 In Orbit
所有者/国家 SPXS/US

Most Searched